TimeCDT,TemperatureF,Dew PointF,Humidity,Sea Level PressureIn,VisibilityMPH,Wind Direction,Wind SpeedMPH,Gust SpeedMPH,PrecipitationIn,Events,Conditions,WindDirDegrees,DateUTC
12:15 AM,33.8,33.8,100,29.90,9.0,Calm,Calm,-,N/A,,Clear,0,2012-10-15 05:15:00
12:35 AM,32.0,30.2,93,29.90,10.0,South,3.5,-,N/A,,Clear,170,2012-10-15 05:35:00
12:55 AM,32.0,32.0,100,29.91,8.0,WSW,4.6,-,N/A,,Clear,240,2012-10-15 05:55:00
1:15 AM,32.0,32.0,100,29.90,10.0,ESE,3.5,-,N/A,,Clear,120,2012-10-15 06:15:00
1:35 AM,33.8,33.8,100,29.90,8.0,SE,4.6,-,N/A,,Clear,130,2012-10-15 06:35:00
1:55 AM,35.6,35.6,100,29.90,8.0,SE,3.5,-,N/A,,Clear,130,2012-10-15 06:55:00
2:15 AM,33.8,33.8,100,29.90,3.0,SSE,3.5,-,N/A,,Clear,160,2012-10-15 07:15:00
2:35 AM,32.0,32.0,100,29.90,5.0,SSE,3.5,-,N/A,,Clear,150,2012-10-15 07:35:00
2:55 AM,32.0,32.0,100,29.90,5.0,SSE,4.6,-,N/A,,Clear,160,2012-10-15 07:55:00
3:15 AM,30.2,30.2,100,29.90,5.0,SSE,4.6,-,N/A,,Clear,150,2012-10-15 08:15:00
3:35 AM,30.2,30.2,100,29.89,6.0,South,5.8,-,N/A,,Clear,170,2012-10-15 08:35:00
3:55 AM,30.2,30.2,100,29.88,6.0,SSE,4.6,-,N/A,,Clear,160,2012-10-15 08:55:00
4:15 AM,30.2,30.2,100,29.88,6.0,SSE,4.6,-,N/A,,Clear,160,2012-10-15 09:15:00
4:55 AM,30.2,30.2,100,29.87,6.0,SE,6.9,-,N/A,,Clear,140,2012-10-15 09:55:00
5:15 AM,32.0,30.2,93,29.87,10.0,SE,6.9,-,N/A,,Clear,140,2012-10-15 10:15:00
5:55 AM,32.0,32.0,100,29.86,10.0,SE,6.9,-,N/A,,Clear,140,2012-10-15 10:55:00
6:15 AM,32.0,32.0,100,29.87,10.0,SSE,4.6,-,N/A,,Clear,160,2012-10-15 11:15:00
6:35 AM,32.0,30.2,93,29.87,10.0,South,5.8,-,N/A,,Clear,170,2012-10-15 11:35:00
6:55 AM,30.2,30.2,100,29.88,10.0,South,4.6,-,N/A,,Clear,180,2012-10-15 11:55:00
7:15 AM,32.0,30.2,93,29.87,10.0,SSE,6.9,-,N/A,,Clear,160,2012-10-15 12:15:00
7:35 AM,33.8,33.8,100,29.88,10.0,SSE,5.8,-,N/A,,Clear,160,2012-10-15 12:35:00
7:55 AM,33.8,33.8,100,29.87,10.0,SSE,6.9,-,N/A,,Clear,150,2012-10-15 12:55:00
8:15 AM,33.8,30.2,87,29.87,10.0,SSE,6.9,-,N/A,,Clear,150,2012-10-15 13:15:00
8:35 AM,35.6,33.8,93,29.86,10.0,SE,10.4,-,N/A,,Clear,140,2012-10-15 13:35:00
8:55 AM,37.4,35.6,93,29.86,10.0,SSE,8.1,-,N/A,,Clear,150,2012-10-15 13:55:00
9:15 AM,39.2,37.4,93,29.86,10.0,SSE,9.2,-,N/A,,Clear,160,2012-10-15 14:15:00
9:35 AM,41.0,39.2,93,29.86,10.0,South,8.1,-,N/A,,Clear,170,2012-10-15 14:35:00
9:55 AM,44.6,39.2,81,29.86,10.0,South,12.7,-,N/A,,Clear,180,2012-10-15 14:55:00
10:15 AM,46.4,39.2,76,29.85,10.0,South,11.5,-,N/A,,Clear,180,2012-10-15 15:15:00
10:35 AM,46.4,41.0,81,29.84,10.0,South,10.4,-,N/A,,Clear,180,2012-10-15 15:35:00
10:55 AM,48.2,41.0,76,29.83,10.0,South,9.2,-,N/A,,Clear,170,2012-10-15 15:55:00
11:15 AM,50.0,41.0,71,29.81,10.0,South,12.7,-,N/A,,Clear,170,2012-10-15 16:15:00
11:35 AM,51.8,41.0,67,29.81,10.0,South,15.0,19.6,N/A,,Clear,170,2012-10-15 16:35:00
11:55 AM,51.8,41.0,67,29.80,10.0,South,13.8,19.6,N/A,,Clear,170,2012-10-15 16:55:00
12:15 PM,53.6,41.0,62,29.79,10.0,South,13.8,-,N/A,,Scattered Clouds,170,2012-10-15 17:15:00
12:35 PM,53.6,41.0,62,29.79,10.0,South,9.2,-,N/A,,Overcast,170,2012-10-15 17:35:00
12:55 PM,53.6,41.0,62,29.78,10.0,South,13.8,-,N/A,,Overcast,180,2012-10-15 17:55:00
1:15 PM,53.6,42.8,67,29.77,10.0,South,12.7,17.3,N/A,,Overcast,170,2012-10-15 18:15:00
1:35 PM,53.6,42.8,67,29.75,10.0,SSE,13.8,-,N/A,,Overcast,160,2012-10-15 18:35:00
1:55 PM,53.6,42.8,67,29.74,10.0,SSE,15.0,-,N/A,,Overcast,160,2012-10-15 18:55:00
2:15 PM,53.6,42.8,67,29.73,10.0,SSE,16.1,21.9,N/A,,Overcast,160,2012-10-15 19:15:00
2:35 PM,55.4,42.8,63,29.72,10.0,SSE,17.3,-,N/A,,Overcast,160,2012-10-15 19:35:00
2:55 PM,55.4,42.8,63,29.70,10.0,SSE,16.1,-,N/A,,Overcast,160,2012-10-15 19:55:00
3:15 PM,55.4,42.8,63,29.68,10.0,SE,12.7,-,N/A,,Overcast,140,2012-10-15 20:15:00
3:35 PM,55.4,42.8,63,29.68,10.0,SSE,16.1,-,N/A,,Overcast,150,2012-10-15 20:35:00
3:55 PM,55.4,42.8,63,29.67,10.0,SSE,15.0,-,N/A,,Overcast,150,2012-10-15 20:55:00
4:15 PM,55.4,42.8,63,29.66,10.0,SE,12.7,-,N/A,,Mostly Cloudy,140,2012-10-15 21:15:00
4:35 PM,57.2,41.0,55,29.65,10.0,SSE,12.7,18.4,N/A,,Mostly Cloudy,150,2012-10-15 21:35:00
4:55 PM,57.2,41.0,55,29.65,10.0,SE,13.8,18.4,N/A,,Overcast,140,2012-10-15 21:55:00
5:15 PM,55.4,41.0,58,29.64,10.0,SSE,12.7,18.4,N/A,,Overcast,150,2012-10-15 22:15:00
5:35 PM,55.4,39.2,54,29.64,10.0,SSE,15.0,-,N/A,,Overcast,160,2012-10-15 22:35:00
5:55 PM,55.4,41.0,58,29.64,10.0,SSE,11.5,-,N/A,,Overcast,160,2012-10-15 22:55:00
6:15 PM,55.4,41.0,58,29.63,10.0,SSE,16.1,-,N/A,,Overcast,160,2012-10-15 23:15:00
6:35 PM,55.4,39.2,54,29.62,10.0,SSE,15.0,-,N/A,,Overcast,160,2012-10-15 23:35:00
6:55 PM,55.4,39.2,54,29.61,10.0,SSE,17.3,-,N/A,,Overcast,160,2012-10-15 23:55:00
7:15 PM,55.4,39.2,54,29.61,10.0,SSE,15.0,-,N/A,,Mostly Cloudy,160,2012-10-16 00:15:00
7:35 PM,53.6,39.2,58,29.61,10.0,SSE,11.5,-,N/A,,Partly Cloudy,150,2012-10-16 00:35:00
7:55 PM,53.6,39.2,58,29.60,10.0,SSE,12.7,-,N/A,,Clear,150,2012-10-16 00:55:00
8:15 PM,53.6,39.2,58,29.59,10.0,SSE,11.5,-,N/A,,Clear,160,2012-10-16 01:15:00
8:35 PM,51.8,39.2,62,29.59,10.0,SSE,10.4,-,N/A,,Clear,160,2012-10-16 01:35:00
8:55 PM,51.8,39.2,62,29.59,10.0,SSE,11.5,-,N/A,,Clear,160,2012-10-16 01:55:00
9:15 PM,51.8,39.2,62,29.59,10.0,SSE,9.2,-,N/A,,Clear,160,2012-10-16 02:15:00
9:35 PM,51.8,39.2,62,29.58,10.0,SSE,9.2,-,N/A,,Clear,160,2012-10-16 02:35:00
9:55 PM,53.6,39.2,58,29.57,10.0,South,10.4,-,N/A,,Clear,170,2012-10-16 02:55:00
10:15 PM,53.6,39.2,58,29.56,10.0,South,11.5,-,N/A,,Clear,170,2012-10-16 03:15:00
10:35 PM,55.4,39.2,54,29.54,10.0,South,17.3,-,N/A,,Clear,170,2012-10-16 03:35:00
10:55 PM,55.4,39.2,54,29.54,10.0,South,11.5,-,N/A,,Clear,180,2012-10-16 03:55:00
11:15 PM,55.4,39.2,54,29.54,10.0,South,12.7,-,N/A,,Clear,180,2012-10-16 04:15:00
11:35 PM,55.4,39.2,54,29.53,10.0,South,12.7,-,N/A,,Clear,180,2012-10-16 04:35:00
11:55 PM,55.4,41.0,58,29.53,10.0,South,12.7,-,N/A,,Clear,180,2012-10-16 04:55:00